GW2464 Weather Reports


Display with metric or nautical units.
time (UTC)temp
F
wind
direction
speed
MPH
gust
MPH
rain 1hr
in
rain 24hr
in
rain mn
in
humidity
%
barometer
mb
20260504202117 67 181 8.0 13.0 0.00 0.00 0.00 43 1008.2
20260504201614 67 152 4.0 5.0 0.00 0.00 0.00 44 1008.4
20260504201112 67 233 7.0 8.0 0.00 0.00 0.00 44 1008.4
20260504200609 67 131 2.0 3.0 0.00 0.00 0.00 45 1008.4
20260504200105 68 185 2.0 5.0 0.00 0.00 0.00 42 1008.6
20260504195601 69 198 5.0 6.0 0.00 0.00 0.00 43 1008.7
20260504195057 69 203 8.0 11.0 0.00 0.00 0.00 44 1008.4
20260504194554 68 218 3.0 6.0 0.00 0.00 0.00 44 1008.4
20260504194050 67 246 6.0 7.0 0.00 0.00 0.00 44 1008.5
20260504193546 66 215 3.0 5.0 0.00 0.00 0.00 47 1008.8
20260504193045 66 266 3.0 3.0 0.00 0.00 0.00 46 1008.6
20260504192543 67 245 4.0 5.0 0.00 0.00 0.00 46 1008.7
20260504192041 66 188 5.0 7.0 0.00 0.00 0.00 44 1008.7
20260504191538 66 180 7.0 9.0 0.00 0.00 0.00 45 1009.0
20260504191034 67 207 4.0 5.0 0.00 0.00 0.00 45 1008.6
20260504190531 66 163 5.0 7.0 0.00 0.00 0.00 45 1008.6
20260504190027 65 228 6.0 7.0 0.00 0.00 0.00 45 1008.8
20260504185524 65 250 8.0 13.0 0.00 0.00 0.00 46 1008.9
20260504185021 66 237 6.0 7.0 0.00 0.00 0.00 44 1008.8
20260504184516 67 239 4.0 5.0 0.00 0.00 0.00 46 1008.9
20260504184012 66 259 6.0 8.0 0.00 0.00 0.00 43 1009.0
20260504183509 65 208 4.0 5.0 0.00 0.00 0.00 45 1009.0
20260504183008 64 238 5.0 6.0 0.00 0.00 0.00 46 1009.0
20260504182504 66 253 5.0 7.0 0.00 0.00 0.00 44 1009.0
20260504182001 65 208 3.0 7.0 0.00 0.00 0.00 45 1009.0
20260504181458 66 205 4.0 5.0 0.00 0.00 0.00 45 1009.0
20260504180956 68 209 6.0 7.0 0.00 0.00 0.00 44 1009.2
20260504180455 66 102 3.0 3.0 0.00 0.00 0.00 46 1009.2
20260504175953 66 207 8.0 13.0 0.00 0.00 0.00 43 1009.0
20260504175450 66 247 6.0 9.0 0.00 0.00 0.00 45 1009.3
20260504174947 65 151 5.0 6.0 0.00 0.00 0.00 47 1009.1
20260504174445 63 183 6.0 7.0 0.00 0.00 0.00 46 1009.5
20260504173942 64 246 10.0 11.0 0.00 0.00 0.00 46 1009.2
20260504173438 65 226 8.0 9.0 0.00 0.00 0.00 46 1009.5
20260504172936 66 198 3.0 5.0 0.00 0.00 0.00 45 1009.5
20260504172431 64 161 5.0 5.0 0.00 0.00 0.00 46 1009.2
20260504171928 64 47 3.0 5.0 0.00 0.00 0.00 46 1009.5
20260504171426 64 231 7.0 8.0 0.00 0.00 0.00 45 1009.7
20260504170923 64 237 4.0 5.0 0.00 0.00 0.00 47 1009.7
20260504170419 63 244 9.0 13.0 0.00 0.00 0.00 47 1009.7
20260504160338 61 166 7.0 8.0 0.00 0.00 0.00 47 1010.4
20260504150802 58 258 5.0 6.0 0.00 0.00 0.00 49 1011.0
20260504150259 59 254 4.0 6.0 0.00 0.00 0.00 48 1011.0
20260504141229 56 195 5.0 6.0 0.00 0.00 0.00 50 1011.3
20260504140725 56 282 8.0 10.0 0.00 0.00 0.00 50 1011.2
20260504140220 56 182 4.0 5.0 0.00 0.00 0.00 50 1011.2
20260504130649 52 180 4.0 6.0 0.00 0.00 0.00 54 1011.8
20260504130146 52 171 6.0 7.0 0.00 0.00 0.00 54 1011.8
20260504120110 51 183 5.0 6.0 0.00 0.00 0.00 56 1011.9
20260504110538 39 8 1.0 1.0 0.00 0.00 0.00 83 1011.8
20260504100454 35 2 1.0 2.0 0.00 0.00 0.00 89 1011.9
20260504081847 36 359 0.0 0.0 0.00 0.00 0.00 87 1011.9
20260504081343 37 355 0.0 0.0 0.00 0.00 0.00 87 1012.0
20260504080839 37 352 0.0 0.0 0.00 0.00 0.00 86 1011.8
20260504080337 37 348 0.0 1.0 0.00 0.00 0.00 86 1011.9
20260504070304 42 223 3.0 3.0 0.00 0.00 0.00 70 1011.7
20260504060224 40 187 3.0 3.0 0.00 0.00 0.00 75 1011.5
20260504050652 37 13 1.0 1.0 0.00 0.00 0.00 85 1011.6
20260504050149 36 14 1.0 1.0 0.00 0.00 0.00 88 1011.5
20260504045646 36 10 1.0 1.0 0.00 0.00 0.00 89 1011.3
20260504045146 36 0 1.0 2.0 0.00 0.00 0.00 88 1011.2
20260504044644 36 6 1.0 1.0 0.00 0.00 0.00 89 1011.5
20260504044141 36 25 1.0 1.0 0.00 0.00 0.00 89 1011.6
20260504043638 36 11 1.0 2.0 0.00 0.00 0.00 90 1011.5
20260504043135 36 356 1.0 1.0 0.00 0.00 0.00 89 1011.4
20260504042632 37 13 0.0 0.0 0.00 0.00 0.00 88 1011.5
20260504042129 37 7 1.0 1.0 0.00 0.00 0.00 86 1011.4
20260504041625 37 14 0.0 1.0 0.00 0.00 0.00 86 1011.6
20260504041121 37 9 2.0 2.0 0.00 0.00 0.00 86 1011.5
20260504040618 37 10 1.0 1.0 0.00 0.00 0.00 87 1011.4
20260504040115 37 8 0.0 1.0 0.00 0.00 0.00 88 1011.5
20260504035612 37 3 0.0 1.0 0.00 0.00 0.00 87 1011.5
20260504035108 38 10 0.0 1.0 0.00 0.00 0.00 86 1011.8
20260504034606 38 7 0.0 1.0 0.00 0.00 0.00 85 1011.5
20260504034103 38 13 0.0 1.0 0.00 0.00 0.00 85 1011.6
20260504033601 38 15 1.0 1.0 0.00 0.00 0.00 87 1011.5
20260504033058 38 12 1.0 2.0 0.00 0.00 0.00 85 1011.6
20260504032555 39 2 0.0 0.0 0.00 0.00 0.00 87 1011.5
20260504032052 40 14 1.0 1.0 0.00 0.00 0.00 85 1011.6
20260504031549 40 8 1.0 1.0 0.00 0.00 0.00 81 1011.5
20260504031045 41 22 1.0 1.0 0.00 0.00 0.00 83 1011.5
20260504030542 40 32 1.0 2.0 0.00 0.00 0.00 83 1011.5
20260504030038 40 24 1.0 1.0 0.00 0.00 0.00 85 1011.4
20260504025536 40 10 1.0 2.0 0.00 0.00 0.00 86 1011.3
20260504025032 40 354 0.0 0.0 0.00 0.00 0.00 84 1011.2
20260504024529 40 354 0.0 0.0 0.00 0.00 0.00 83 1011.5
20260504024026 40 354 0.0 0.0 0.00 0.00 0.00 83 1011.5
20260504023523 40 354 0.0 0.0 0.00 0.00 0.00 82 1011.4
20260504023018 40 354 0.0 0.0 0.00 0.00 0.00 82 1011.5
20260504022514 40 354 0.0 0.0 0.00 0.00 0.00 82 1011.4
20260504022011 41 359 0.0 0.0 0.00 0.00 0.00 83 1011.3
20260504021509 41 356 0.0 0.0 0.00 0.00 0.00 84 1011.4
20260504021006 41 356 0.0 0.0 0.00 0.00 0.00 81 1011.3
20260504020502 41 357 0.0 0.0 0.00 0.00 0.00 81 1011.3
20260504015959 41 1 0.0 0.0 0.00 0.00 0.00 81 1011.5
20260504015455 41 1 0.0 0.0 0.00 0.00 0.00 80 1011.4
20260504014951 41 4 0.0 0.0 0.00 0.00 0.00 80 1011.3
20260504014447 40 4 0.0 0.0 0.00 0.00 0.00 80 1011.3
20260504013944 40 4 0.0 0.0 0.00 0.00 0.00 81 1011.2
20260504013443 40 4 0.0 0.0 0.00 0.00 0.00 81 1011.1
20260504012938 41 4 0.0 0.0 0.00 0.00 0.00 79 1011.2
20260504012437 41 4 0.0 0.0 0.00 0.00 0.00 77 1011.1
20260504011934 41 4 0.0 0.0 0.00 0.00 0.00 77 1011.2
20260504011430 41 4 0.0 0.0 0.00 0.00 0.00 78 1011.1
20260504010926 41 3 0.0 0.0 0.00 0.00 0.00 77 1011.0
20260504010422 42 3 1.0 1.0 0.00 0.00 0.00 76 1011.1
20260504005919 42 3 1.0 1.0 0.00 0.00 0.00 76 1011.1
20260504005415 42 1 1.0 1.0 0.00 0.00 0.00 77 1011.0
20260504004913 43 4 0.0 0.0 0.00 0.00 0.00 74 1011.1
20260504004411 43 8 1.0 1.0 0.00 0.00 0.00 73 1011.0
20260504003908 43 12 1.0 1.0 0.00 0.00 0.00 73 1011.1
20260504003404 44 351 1.0 1.0 0.00 0.00 0.00 72 1011.0
20260504002901 45 347 0.0 1.0 0.00 0.00 0.00 72 1011.0
20260504002358 45 6 0.0 0.0 0.00 0.00 0.00 68 1010.8
20260504001855 46 359 0.0 1.0 0.00 0.00 0.00 66 1010.7
20260504001352 46 356 0.0 0.0 0.00 0.00 0.00 65 1010.8
20260504000849 47 0 0.0 0.0 0.00 0.00 0.00 64 1010.6
20260504000346 48 2 0.0 0.0 0.00 0.00 0.00 60 1010.8
20260503235844 49 355 0.0 0.0 0.00 0.00 0.00 61 1010.3
20260503235341 49 358 0.0 0.0 0.00 0.00 0.00 58 1010.6
20260503234838 50 350 0.0 0.0 0.00 0.00 0.00 60 1010.1
20260503234336 50 322 1.0 2.0 0.00 0.00 0.00 52 1010.8
20260503233834 51 289 1.0 1.0 0.00 0.00 0.00 52 1010.6
20260503233329 51 253 1.0 2.0 0.00 0.00 0.00 52 1010.3
20260503232826 51 337 1.0 1.0 0.00 0.00 0.00 52 1010.3
20260503232323 51 284 2.0 3.0 0.00 0.00 0.00 51 1010.3
20260503231821 51 230 3.0 3.0 0.00 0.00 0.00 50 1010.3
20260503231318 52 280 3.0 3.0 0.00 0.00 0.00 50 1010.4
20260503230814 52 303 1.0 1.0 0.00 0.00 0.00 51 1010.2
20260503230311 52 300 3.0 3.0 0.00 0.00 0.00 52 1010.3
20260503225809 51 220 3.0 3.0 0.00 0.00 0.00 51 1010.6
20260503225305 52 226 3.0 3.0 0.00 0.00 0.00 51 1010.2
20260503224801 51 244 2.0 2.0 0.00 0.00 0.00 52 1010.2
20260503224259 52 249 3.0 3.0 0.00 0.00 0.00 51 1010.4
20260503223756 52 340 1.0 1.0 0.00 0.00 0.00 52 1010.6
20260503223253 52 275 3.0 3.0 0.00 0.00 0.00 49 1010.4
20260503222749 52 279 3.0 3.0 0.00 0.00 0.00 50 1010.4
20260503222247 52 266 3.0 3.0 0.00 0.00 0.00 50 1010.2
20260503221746 51 278 5.0 6.0 0.00 0.00 0.00 51 1010.4
20260503221243 53 256 3.0 5.0 0.00 0.00 0.00 49 1010.4
20260503220740 53 293 5.0 6.0 0.00 0.00 0.00 50 1010.4
20260503220237 52 3 2.0 3.0 0.00 0.00 0.00 49 1010.4
20260503215733 52 208 4.0 5.0 0.00 0.00 0.00 49 1010.3
20260503215230 53 242 4.0 6.0 0.00 0.00 0.00 47 1010.6
20260503214728 52 264 6.0 7.0 0.00 0.00 0.00 48 1010.3
20260503214225 52 262 6.0 7.0 0.00 0.00 0.00 47 1010.3
20260503213723 52 299 4.0 5.0 0.00 0.00 0.00 47 1010.4
20260503213220 52 269 4.0 5.0 0.00 0.00 0.00 45 1010.3
20260503212717 52 257 4.0 5.0 0.00 0.00 0.00 45 1010.3
20260503212214 52 265 4.0 5.0 0.00 0.00 0.00 47 1010.1
20260503211712 52 260 2.0 3.0 0.00 0.00 0.00 45 1010.1
20260503211208 52 288 2.0 2.0 0.00 0.00 0.00 45 1010.0
20260503210704 53 321 6.0 8.0 0.00 0.00 0.00 44 1010.2
20260503210201 52 199 8.0 10.0 0.00 0.00 0.00 43 1009.9
20260503205656 52 276 6.0 8.0 0.00 0.00 0.00 43 1010.0
20260503205152 52 223 8.0 10.0 0.00 0.00 0.00 43 1010.0
20260503204649 52 232 4.0 5.0 0.00 0.00 0.00 43 1010.0
20260503204147 52 261 6.0 8.0 0.00 0.00 0.00 43 1010.1
20260503203644 53 270 6.0 9.0 0.00 0.00 0.00 43 1009.8
20260503203142 52 306 2.0 2.0 0.00 0.00 0.00 45 1009.8
20260503202638 53 313 6.0 7.0 0.00 0.00 0.00 42 1009.9